Location: Newark
(36.0914°N, 36.0355°E)
Time: 08:42:48
(UTC+00:00)

ISS - Visible Passes

Search period start: 18 July 2019 00:00
Search period end: 28 July 2019 00:00
Orbit: 409 x 418 km, 51.6° (Epoch: 18 July)

Date Brightness Start Highest point End Pass type
(mag) Time Alt. Az. Time Alt. Az. Time Alt. Az.
18 Jul -3.5 01:13:15 10° NW 01:16:33 71° NE 01:19:50 10° SE visible
18 Jul -3.6 17:53:06 10° SW 17:56:26 76° NW 17:59:46 10° NE visible
18 Jul -0.3 19:32:04 10° NW 19:33:36 12° NNW 19:35:07 10° N visible
19 Jul -2.3 00:24:06 10° NW 00:27:13 37° NE 00:30:19 10° ESE visible
19 Jul -2.3 02:01:22 10° W 02:03:40 18° SW 02:05:59 10° S visible
19 Jul -0.7 18:41:41 10° WNW 18:44:03 18° NNW 18:46:26 10° NNE visible
19 Jul -1.3 23:35:04 10° NNW 23:37:48 23° NNE 23:40:30 10° E visible
20 Jul -3.2 01:11:57 13° WNW 01:14:31 34° SW 01:17:31 10° SSE visible
20 Jul -1.4 17:51:39 10° W 17:54:34 27° NNW 17:57:29 10° NNE visible
22 Jul -0.6 17:51:03 10° WNW 17:52:52 14° NNW 17:54:41 10° N visible
27 Jul -0.3 20:13:42 10° NNW 20:14:06 12° NNW 20:14:06 12° NNW visible
